Location: Proctor
(47.8934°N, 114.3048°W)
Time: 13:36:57
(UTC+00:00)

POLYITAN 1 - Pass Details

Date: 01 July 2022
Orbit: 586 x 605 km, 98.0° (Epoch: 18 August)

Event Time Altitude Azimuth Distance (km) Brightness Sun altitude
Rises 09:18:55 0° 16° (NNE) 2,861 ? -15.7°
Reaches altitude 10° 09:21:06 10° 19° (NNE) 1,956 ? -15.5°
Maximum altitude 09:25:20 65° 102° (ESE) 669 ? -15.3°
Enters shadow 09:27:53 23° 179° (S) 1,297 ? -15.1°
